Time,TemperatureF,DewpointF,PressureIn,WindDirection,WindDirectionDegrees,WindSpeedMPH,WindSpeedGustMPH,Humidity,HourlyPrecipIn,Conditions,Clouds,dailyrainin,SoftwareType,DateUTC
2016-02-10 00:01:00,29.5,22.9,29.47,WNW,299,5.4,5.8,76,0.00,,---,0.00,VWS V15.00,2016-02-10 05:01:00,
2016-02-10 00:06:00,29.5,22.5,29.47,NW,312,3.6,4.9,75,0.00,,---,0.00,VWS V15.00,2016-02-10 05:06:00,
2016-02-10 00:11:00,29.1,22.2,29.47,NW,322,3.1,4.0,75,0.00,,---,0.00,VWS V15.00,2016-02-10 05:11:00,
2016-02-10 00:16:00,29.1,22.5,29.47,NW,323,5.4,6.7,76,0.00,,---,0.00,VWS V15.00,2016-02-10 05:16:00,
2016-02-10 00:21:00,28.6,22.0,29.47,NNW,345,0.0,7.4,76,0.00,,---,0.00,VWS V15.00,2016-02-10 05:21:00,
2016-02-10 00:26:00,28.0,21.5,29.47,NNW,336,0.0,2.7,76,0.00,,---,0.00,VWS V15.00,2016-02-10 05:26:00,
2016-02-10 00:36:00,27.5,21.2,29.47,NNW,331,0.0,0.0,77,0.00,,---,0.00,VWS V15.00,2016-02-10 05:36:00,
2016-02-10 00:41:00,27.5,21.5,29.47,NNW,327,0.0,3.1,78,0.00,,---,0.00,VWS V15.00,2016-02-10 05:41:00,
2016-02-10 00:46:00,27.7,21.7,29.47,NW,315,4.5,4.5,78,0.00,,---,0.00,VWS V15.00,2016-02-10 05:46:00,
2016-02-10 00:51:00,28.0,22.4,29.47,NW,316,0.0,0.0,79,0.00,,---,0.00,VWS V15.00,2016-02-10 05:51:00,
2016-02-10 00:56:00,27.9,22.2,29.47,NW,316,0.0,0.0,79,0.00,,---,0.00,VWS V15.00,2016-02-10 05:56:00,
2016-02-10 01:06:00,27.5,21.9,29.47,WNW,302,5.8,5.8,79,0.00,,---,0.00,VWS V15.00,2016-02-10 06:06:00,
2016-02-10 01:11:00,27.5,22.1,29.47,NW,307,0.0,3.1,80,0.00,,---,0.00,VWS V15.00,2016-02-10 06:11:00,
2016-02-10 01:16:00,27.1,21.8,29.47,WNW,299,0.0,2.7,80,0.00,,---,0.00,VWS V15.00,2016-02-10 06:16:00,
2016-02-10 01:21:00,27.1,21.8,29.47,WNW,299,0.0,0.0,80,0.00,,---,0.00,VWS V15.00,2016-02-10 06:21:00,
2016-02-10 01:26:00,26.6,21.3,29.47,WNW,299,0.0,0.0,80,0.00,,---,0.00,VWS V15.00,2016-02-10 06:26:00,
2016-02-10 01:36:00,26.2,20.9,29.47,WNW,299,0.0,0.0,80,0.00,,---,0.00,VWS V15.00,2016-02-10 06:36:00,
2016-02-10 01:41:00,26.6,21.6,29.47,WNW,299,0.0,0.0,81,0.00,,---,0.00,VWS V15.00,2016-02-10 06:41:00,
2016-02-10 01:46:00,27.0,22.2,29.47,WNW,298,2.7,3.6,82,0.00,,---,0.00,VWS V15.00,2016-02-10 06:46:00,
2016-02-10 01:56:00,27.3,22.9,29.47,WNW,298,0.0,0.0,83,0.00,,---,0.00,VWS V15.00,2016-02-10 06:56:00,
2016-02-10 02:01:00,27.3,22.9,29.47,WNW,298,0.0,0.0,83,0.00,,---,0.00,VWS V15.00,2016-02-10 07:01:00,
2016-02-10 02:06:00,27.3,22.9,29.47,WNW,298,0.0,0.0,83,0.00,,---,0.00,VWS V15.00,2016-02-10 07:06:00,
2016-02-10 02:11:00,27.1,22.7,29.47,WNW,298,3.1,3.1,83,0.00,,---,0.00,VWS V15.00,2016-02-10 07:11:00,
2016-02-10 02:16:00,27.3,22.9,29.47,WNW,298,0.0,0.0,83,0.00,,---,0.00,VWS V15.00,2016-02-10 07:16:00,
2016-02-10 02:21:00,27.1,22.7,29.47,WNW,298,0.0,0.0,83,0.00,,---,0.00,VWS V15.00,2016-02-10 07:21:00,
2016-02-10 02:26:00,27.1,22.7,29.47,WNW,298,0.0,0.0,83,0.00,,---,0.00,VWS V15.00,2016-02-10 07:26:00,
2016-02-10 02:31:00,27.0,22.5,29.47,WNW,298,0.0,0.0,83,0.00,,---,0.00,VWS V15.00,2016-02-10 07:31:00,
2016-02-10 02:36:00,26.6,21.9,29.47,WNW,299,0.0,0.0,82,0.00,,---,0.00,VWS V15.00,2016-02-10 07:36:00,
2016-02-10 02:41:00,26.2,21.5,29.47,WNW,298,0.0,0.0,82,0.00,,---,0.00,VWS V15.00,2016-02-10 07:41:00,
2016-02-10 02:46:00,26.2,21.5,29.44,WNW,299,0.0,0.0,82,0.00,,---,0.00,VWS V15.00,2016-02-10 07:46:00,
2016-02-10 02:51:00,26.4,21.7,29.44,WNW,299,0.0,0.0,82,0.00,,---,0.00,VWS V15.00,2016-02-10 07:51:00,
2016-02-10 02:55:00,26.4,21.7,29.44,WNW,299,0.0,0.0,82,0.00,,---,0.00,VWS V15.00,2016-02-10 07:55:00,
2016-02-10 03:00:00,26.2,21.8,29.44,WNW,299,0.0,0.0,83,0.00,,---,0.00,VWS V15.00,2016-02-10 08:00:00,
2016-02-10 03:05:00,26.2,21.8,29.44,WNW,299,0.0,0.0,83,0.00,,---,0.00,VWS V15.00,2016-02-10 08:05:00,
2016-02-10 03:10:00,26.6,22.1,29.44,WNW,299,0.0,0.0,83,0.00,,---,0.00,VWS V15.00,2016-02-10 08:10:00,
2016-02-10 03:15:00,26.6,22.4,29.47,WNW,298,0.0,0.0,84,0.00,,---,0.00,VWS V15.00,2016-02-10 08:15:00,
2016-02-10 03:20:00,27.0,22.8,29.47,WNW,299,0.0,0.0,84,0.00,,---,0.00,VWS V15.00,2016-02-10 08:20:00,
2016-02-10 03:25:00,27.1,23.2,29.47,WNW,298,0.0,0.0,85,0.00,,---,0.00,VWS V15.00,2016-02-10 08:25:00,
2016-02-10 03:30:00,26.8,22.9,29.47,WNW,299,0.0,0.0,85,0.00,,---,0.00,VWS V15.00,2016-02-10 08:30:00,
2016-02-10 03:35:00,26.8,22.9,29.47,WNW,299,0.0,0.0,85,0.00,,---,0.00,VWS V15.00,2016-02-10 08:35:00,
2016-02-10 03:40:00,27.0,23.1,29.47,WNW,299,0.0,0.0,85,0.00,,---,0.00,VWS V15.00,2016-02-10 08:40:00,
2016-02-10 03:45:00,27.1,23.5,29.47,WNW,299,0.0,0.0,86,0.00,,---,0.00,VWS V15.00,2016-02-10 08:45:00,
2016-02-10 03:50:00,27.0,23.6,29.47,WNW,298,0.0,0.0,87,0.00,,---,0.00,VWS V15.00,2016-02-10 08:50:00,
2016-02-10 03:55:00,27.0,23.6,29.47,WNW,299,0.0,0.0,87,0.00,,---,0.00,VWS V15.00,2016-02-10 08:55:00,
2016-02-10 04:05:00,26.6,23.3,29.47,WNW,299,0.0,0.0,87,0.00,,---,0.00,VWS V15.00,2016-02-10 09:05:00,
2016-02-10 04:15:00,26.4,23.1,29.47,WNW,299,0.0,0.0,87,0.00,,---,0.00,VWS V15.00,2016-02-10 09:15:00,
2016-02-10 04:20:00,26.6,23.5,29.47,WNW,298,0.0,0.0,88,0.00,,---,0.00,VWS V15.00,2016-02-10 09:20:00,
2016-02-10 04:25:00,26.6,23.5,29.47,WNW,299,0.0,0.0,88,0.00,,---,0.00,VWS V15.00,2016-02-10 09:25:00,
2016-02-10 04:30:00,26.2,23.2,29.47,WNW,299,0.0,0.0,88,0.00,,---,0.00,VWS V15.00,2016-02-10 09:30:00,
2016-02-10 04:35:00,26.1,23.0,29.47,WNW,299,0.0,0.0,88,0.00,,---,0.00,VWS V15.00,2016-02-10 09:35:00,
2016-02-10 04:45:00,26.1,23.0,29.47,WNW,299,0.0,0.0,88,0.00,,---,0.00,VWS V15.00,2016-02-10 09:45:00,
2016-02-10 04:50:00,26.2,23.2,29.47,WNW,299,0.0,0.0,88,0.00,,---,0.00,VWS V15.00,2016-02-10 09:50:00,
2016-02-10 04:55:00,26.4,23.6,29.47,WNW,299,0.0,0.0,89,0.00,,---,0.00,VWS V15.00,2016-02-10 09:55:00,
2016-02-10 05:00:00,26.6,23.8,29.47,WNW,299,0.0,0.0,89,0.00,,---,0.00,VWS V15.00,2016-02-10 10:00:00,
2016-02-10 05:05:00,26.6,23.8,29.47,WNW,299,0.0,0.0,89,0.00,,---,0.00,VWS V15.00,2016-02-10 10:05:00,
2016-02-10 05:10:00,26.6,23.8,29.47,WNW,299,0.0,0.0,89,0.00,,---,0.00,VWS V15.00,2016-02-10 10:10:00,
2016-02-10 05:15:00,26.2,23.5,29.47,WNW,299,0.0,0.0,89,0.00,,---,0.00,VWS V15.00,2016-02-10 10:15:00,
2016-02-10 05:20:00,26.2,23.5,29.47,WNW,298,0.0,0.0,89,0.00,,---,0.00,VWS V15.00,2016-02-10 10:20:00,
2016-02-10 05:30:00,26.1,23.5,29.47,WNW,299,0.0,0.0,90,0.00,,---,0.00,VWS V15.00,2016-02-10 10:30:00,
2016-02-10 05:35:00,26.2,23.7,29.47,WNW,299,0.0,0.0,90,0.00,,---,0.00,VWS V15.00,2016-02-10 10:35:00,
2016-02-10 05:40:00,26.8,24.2,29.47,WNW,299,0.0,0.0,90,0.00,,---,0.00,VWS V15.00,2016-02-10 10:40:00,
2016-02-10 05:45:00,27.0,24.7,29.47,WNW,298,0.0,0.0,91,0.00,,---,0.00,VWS V15.00,2016-02-10 10:45:00,
2016-02-10 05:50:00,27.1,24.9,29.47,WNW,299,0.0,0.0,91,0.00,,---,0.00,VWS V15.00,2016-02-10 10:50:00,
2016-02-10 05:55:00,27.1,24.9,29.47,WNW,299,0.0,0.0,91,0.00,,---,0.00,VWS V15.00,2016-02-10 10:55:00,
2016-02-10 06:00:00,27.1,24.9,29.47,WNW,299,0.0,0.0,91,0.00,,---,0.00,VWS V15.00,2016-02-10 11:00:00,
2016-02-10 06:05:00,27.1,24.9,29.47,WNW,299,0.0,0.0,91,0.00,,---,0.00,VWS V15.00,2016-02-10 11:05:00,
2016-02-10 06:10:00,27.0,24.4,29.47,WNW,299,0.0,0.0,90,0.00,,---,0.00,VWS V15.00,2016-02-10 11:10:00,
2016-02-10 06:15:00,27.0,24.4,29.47,WNW,299,0.0,0.0,90,0.00,,---,0.00,VWS V15.00,2016-02-10 11:15:00,
2016-02-10 06:20:00,27.0,24.4,29.47,WNW,299,0.0,0.0,90,0.00,,---,0.00,VWS V15.00,2016-02-10 11:20:00,
2016-02-10 06:25:00,27.5,25.0,29.47,WNW,299,0.0,0.0,90,0.00,,---,0.00,VWS V15.00,2016-02-10 11:25:00,
2016-02-10 06:30:00,27.7,25.1,29.47,WNW,299,0.0,0.0,90,0.00,,---,0.00,VWS V15.00,2016-02-10 11:30:00,
2016-02-10 06:35:00,27.5,24.7,29.47,WNW,299,0.0,0.0,89,0.00,,---,0.00,VWS V15.00,2016-02-10 11:35:00,
2016-02-10 06:40:00,27.5,24.7,29.47,WNW,299,0.0,0.0,89,0.00,,---,0.00,VWS V15.00,2016-02-10 11:40:00,
2016-02-10 06:45:00,27.3,24.5,29.47,WNW,299,0.0,0.0,89,0.00,,---,0.00,VWS V15.00,2016-02-10 11:45:00,
2016-02-10 06:50:00,27.3,24.5,29.47,WNW,299,0.0,0.0,89,0.00,,---,0.00,VWS V15.00,2016-02-10 11:50:00,
2016-02-10 06:55:00,27.5,24.7,29.47,WNW,299,0.0,0.0,89,0.00,,---,0.00,VWS V15.00,2016-02-10 11:55:00,
2016-02-10 07:00:00,27.9,25.0,29.47,WNW,299,0.0,0.0,89,0.00,,---,0.00,VWS V15.00,2016-02-10 12:00:00,
2016-02-10 07:10:00,28.0,25.2,29.47,West,273,0.0,0.0,89,0.00,,---,0.00,VWS V15.00,2016-02-10 12:10:00,
2016-02-10 07:15:00,28.2,25.1,29.50,West,276,0.0,0.0,88,0.00,,---,0.00,VWS V15.00,2016-02-10 12:15:00,
2016-02-10 07:20:00,28.4,25.3,29.50,West,276,0.0,0.0,88,0.00,,---,0.00,VWS V15.00,2016-02-10 12:20:00,
2016-02-10 07:25:00,28.4,25.3,29.50,West,276,0.0,0.0,88,0.00,,---,0.00,VWS V15.00,2016-02-10 12:25:00,
2016-02-10 07:30:00,28.8,25.4,29.50,West,276,0.0,0.0,87,0.00,,---,0.00,VWS V15.00,2016-02-10 12:30:00,
2016-02-10 07:35:00,28.9,25.6,29.50,West,276,0.0,0.0,87,0.00,,---,0.00,VWS V15.00,2016-02-10 12:35:00,
2016-02-10 07:40:00,29.5,26.1,29.50,West,276,0.0,0.0,87,0.00,,---,0.00,VWS V15.00,2016-02-10 12:40:00,
2016-02-10 07:45:00,30.0,26.4,29.50,West,276,0.0,0.0,86,0.00,,---,0.00,VWS V15.00,2016-02-10 12:45:00,
2016-02-10 07:50:00,30.6,26.6,29.50,West,276,0.0,0.0,85,0.00,,---,0.00,VWS V15.00,2016-02-10 12:50:00,
2016-02-10 07:55:00,30.6,26.0,29.50,West,276,0.0,0.0,83,0.00,,---,0.00,VWS V15.00,2016-02-10 12:55:00,